This is the latest recevied weather packets stored in our database for station/object K3RUP-1. If no packets are shown the sender has not sent any weather packets the latest 10 day(s).
| Time | Temp. | Humidity | Pressure | Rain* | Wind** | Luminosity | Snow |
|---|---|---|---|---|---|---|---|
| 1778007545 | 30° C | 33% | 1009.4 hPa | 0 mm | - | 621 W/m² | - |
| 1778007243 | 29.44° C | 35% | 1009.6 hPa | 0 mm | - | 648 W/m² | - |
| 1778006939 | 29.44° C | 33% | 1009.4 hPa | 0 mm | - | 702 W/m² | - |
| 1778006636 | 30° C | 36% | 1009.7 hPa | 0 mm | - | 649 W/m² | - |
| 1778006333 | 30° C | 33% | 1009.5 hPa | 0 mm | - | 637 W/m² | - |
| 1778006030 | 29.44° C | 37% | 1009.4 hPa | 0 mm | - | 556 W/m² | - |
| 1778005726 | 29.44° C | 36% | 1009.9 hPa | 0 mm | - | 628 W/m² | - |
| 1778005423 | 28.89° C | 40% | 1009.8 hPa | 0 mm | - | 695 W/m² | - |
| 1778005120 | 28.33° C | 43% | 1010 hPa | 0 mm | - | 657 W/m² | - |
| 1778004817 | 28.33° C | 44% | 1010 hPa | 0 mm | - | 680 W/m² | - |
| 1778004513 | 28.89° C | 44% | 1010.2 hPa | 0 mm | - | 715 W/m² | - |
| 1778004210 | 28.89° C | 45% | 1010 hPa | 0 mm | - | 690 W/m² | - |
| 1778003907 | 27.78° C | 47% | 1010.3 hPa | 0 mm | - | 667 W/m² | - |
| 1778003603 | 27.78° C | 46% | 1010.3 hPa | 0 mm | - | 697 W/m² | - |
| 1778003300 | 27.78° C | 47% | 1010 hPa | 0 mm | - | 716 W/m² | - |
| 1778002998 | 27.78° C | 46% | 1010.1 hPa | 0 mm | - | 744 W/m² | - |
| 1778002693 | 27.78° C | 48% | 1010.1 hPa | 0 mm | - | 726 W/m² | - |
| 1778002389 | 27.22° C | 49% | 1010.3 hPa | 0 mm | - | 736 W/m² | - |
| 1778002087 | 27.22° C | 49% | 1010.3 hPa | 0 mm | - | 740 W/m² | - |
| 1778001784 | 27.22° C | 49% | 1010.3 hPa | 0 mm | - | 729 W/m² | - |
| 1778001479 | 27.22° C | 51% | 1010.4 hPa | 0 mm | - | 734 W/m² | - |
| 1778001176 | 26.67° C | 50% | 1010.7 hPa | 0 mm | - | 737 W/m² | - |
| 1778000872 | 27.22° C | 51% | 1010.5 hPa | 0 mm | - | 712 W/m² | - |
| 1778000569 | 27.22° C | 52% | 1010.5 hPa | 0 mm | - | 637 W/m² | - |
| 1777999961 | 26.11° C | 54% | 1010.7 hPa | 0 mm | - | 655 W/m² | - |
* Rain latest hour (hover to see other rain measurements)
** Current wind speed in m/s (hover to see current wind gust speed)